Total_Precipitation_Accumulation
0.92 0.91 0.92 1.01 0.99 0.88 0.85 0.95 1.16 1.35 1.52 1.69 1.87 2.03 2.14 2.18 2.11 2.05 2.08 2.01 1.86 1.92 2.05 2.05 2.28 2.30 2.26 2.29 2.23 2.42 2.52 2.28 2.12 2.48 2.40 1.96 1.62 1.50 1.58 1.67 1.74 1.86 1.87
0.80 0.82 0.79 0.80 0.81 0.81 0.82 0.90 1.07 1.36 1.57 1.76 1.97 2.17 2.53 2.66 2.59 2.56 2.41 2.31 2.23 2.28 2.18 2.29 2.54 2.54 2.62 2.70 2.56 2.75 2.93 2.66 2.36 2.85 3.33 2.88 2.37 1.72 1.46 1.57 1.73 1.94 1.98
0.67 0.71 0.69 0.66 0.66 0.68 0.73 0.83 0.96 1.18 1.51 1.85 2.13 2.35 2.62 2.86 2.91 2.75 2.66 2.56 2.59 2.64 2.57 2.55 2.69 2.72 2.78 2.94 2.95 2.93 3.11 3.11 2.79 2.75 3.35 3.35 2.96 2.48 1.87 1.69 1.76 1.95 2.05
0.66 0.66 0.65 0.66 0.64 0.67 0.74 0.86 0.96 1.12 1.33 1.60 2.01 2.39 2.65 2.96 2.96 2.81 2.79 2.78 2.77 2.77 2.71 2.73 2.83 2.87 2.85 2.92 2.92 2.90 3.23 3.53 3.37 3.08 2.81 2.75 2.76 2.83 2.47 2.02 1.85 1.95 2.03
0.69 0.67 0.68 0.67 0.69 0.73 0.78 0.90 1.01 1.18 1.35 1.60 1.95 2.34 2.59 2.82 2.98 2.93 2.79 2.69 2.71 2.57 2.44 2.55 2.75 2.80 2.82 2.83 2.97 3.04 3.32 3.40 3.38 3.31 3.19 2.99 2.77 2.37 2.46 2.42 2.18 2.10 1.98
0.69 0.72 0.77 0.78 0.75 0.80 0.89 1.00 1.14 1.36 1.52 1.64 1.77 1.94 2.16 2.51 2.67 2.78 2.78 2.73 2.71 2.51 2.31 2.35 2.45 2.58 2.68 2.68 2.73 2.90 3.04 3.28 3.43 3.38 3.23 3.24 3.20 2.95 2.71 2.39 2.27 2.38 2.23
0.77 0.84 0.92 0.93 0.90 0.91 1.06 1.17 1.29 1.38 1.45 1.44 1.50 1.64 1.83 2.11 2.26 2.36 2.47 2.50 2.53 2.47 2.42 2.30 2.32 2.37 2.44 2.59 2.82 2.84 2.90 3.06 3.25 3.27 3.22 3.21 3.07 3.01 2.99 2.74 2.39 2.29 2.18
0.89 1.01 1.13 1.19 1.12 1.10 1.14 1.17 1.26 1.25 1.26 1.32 1.39 1.49 1.65 1.82 1.91 1.99 2.11 2.15 2.08 2.03 2.01 2.06 2.13 2.24 2.31 2.41 2.61 2.74 2.77 2.82 2.85 2.85 3.03 3.15 3.04 2.85 2.79 2.80 2.85 2.59 2.33
1.01 1.19 1.38 1.42 1.31 1.23 1.21 1.25 1.34 1.30 1.23 1.28 1.42 1.50 1.56 1.60 1.63 1.70 1.66 1.68 1.69 1.65 1.64 1.68 1.82 2.00 2.12 2.18 2.31 2.49 2.50 2.61 2.64 2.69 2.74 2.75 2.82 2.71 2.54 2.53 2.66 2.81 2.59
1.22 1.38 1.50 1.48 1.43 1.46 1.44 1.30 1.28 1.33 1.29 1.42 1.49 1.48 1.48 1.48 1.52 1.56 1.58 1.56 1.62 1.66 1.67 1.64 1.64 1.74 1.82 1.93 2.11 2.22 2.30 2.39 2.39 2.40 2.45 2.49 2.54 2.54 2.49 2.48 2.54 2.57 2.55
1.40 1.48 1.55 1.54 1.43 1.41 1.39 1.37 1.33 1.32 1.35 1.41 1.47 1.39 1.42 1.47 1.49 1.48 1.54 1.61 1.65 1.73 1.69 1.68 1.68 1.67 1.73 1.80 1.89 2.00 2.13 2.14 2.17 2.08 2.12 2.24 2.32 2.51 2.54 2.50 2.49 2.49 2.42
1.37 1.42 1.55 1.53 1.41 1.36 1.25 1.28 1.37 1.37 1.45 1.49 1.43 1.38 1.49 1.56 1.65 1.65 1.58 1.59 1.61 1.57 1.57 1.65 1.59 1.57 1.60 1.68 1.79 1.87 1.90 1.95 1.90 1.83 1.88 2.01 2.08 2.22 2.34 2.44 2.36 2.39 2.37
1.14 1.14 1.28 1.41 1.35 1.28 1.19 1.27 1.33 1.38 1.41 1.49 1.52 1.43 1.36 1.45 1.55 1.63 1.58 1.54 1.54 1.53 1.57 1.65 1.70 1.59 1.49 1.56 1.63 1.71 1.73 1.72 1.62 1.60 1.68 1.76 1.86 1.96 2.06 2.15 2.23 2.27 2.26
0.91 0.87 0.93 1.08 1.08 1.08 1.13 1.20 1.32 1.46 1.50 1.52 1.51 1.50 1.47 1.55 1.54 1.51 1.46 1.45 1.44 1.39 1.39 1.48 1.56 1.57 1.50 1.43 1.40 1.41 1.57 1.59 1.51 1.40 1.39 1.43 1.47 1.61 1.75 1.85 1.98 2.14 2.28
0.73 0.76 0.76 0.84 0.88 0.91 0.97 1.03 1.13 1.33 1.46 1.54 1.55 1.48 1.47 1.48 1.51 1.50 1.35 1.29 1.22 1.21 1.23 1.37 1.52 1.56 1.52 1.52 1.50 1.39 1.41 1.48 1.52 1.47 1.35 1.25 1.27 1.42 1.54 1.60 1.82 2.01 2.16
0.60 0.63 0.65 0.70 0.78 0.81 0.89 0.90 1.00 1.17 1.27 1.31 1.37 1.47 1.48 1.40 1.36 1.36 1.33 1.22 1.13 1.11 1.09 1.16 1.29 1.42 1.39 1.60 1.65 1.52 1.38 1.38 1.40 1.40 1.39 1.39 1.37 1.26 1.25 1.35 1.51 1.73 1.89
0.52 0.53 0.53 0.59 0.68 0.78 0.82 0.89 1.00 1.13 1.17 1.22 1.26 1.32 1.35 1.29 1.26 1.19 1.16 1.12 1.06 1.10 1.07 1.13 1.24 1.36 1.55 1.68 1.50 1.56 1.49 1.41 1.41 1.36 1.36 1.38 1.36 1.45 1.31 1.29 1.31 1.32 1.47
0.40 0.48 0.49 0.48 0.53 0.63 0.78 0.95 1.00 1.02 1.04 1.10 1.14 1.11 1.13 1.14 1.17 1.05 1.04 1.03 1.04 1.08 1.10 1.15 1.22 1.30 1.51 1.63 1.46 1.65 1.65 1.60 1.53 1.47 1.50 1.54 1.55 1.48 1.61 1.58 1.47 1.35 1.31
0.31 0.37 0.41 0.42 0.44 0.48 0.55 0.65 0.75 0.82 0.84 0.93 0.97 0.99 0.98 1.01 1.05 1.01 1.11 1.12 1.07 1.09 1.10 1.09 1.10 1.11 1.22 1.38 1.32 1.47 1.55 1.64 1.63 1.50 1.47 1.52 1.52 1.77 1.89 1.72 1.62 1.50 1.42
0.20 0.26 0.30 0.32 0.32 0.35 0.40 0.49 0.57 0.67 0.74 0.82 0.87 0.93 0.94 0.98 1.06 1.21 1.31 1.31 1.24 1.13 1.06 1.02 0.98 0.99 1.02 1.25 1.16 1.27 1.31 1.46 1.61 1.57 1.51 1.70 1.63 1.70 1.71 1.60 1.74 1.64 1.49
0.17 0.21 0.23 0.25 0.27 0.29 0.32 0.40 0.47 0.49 0.55 0.63 0.74 0.88 0.99 1.03 1.17 1.34 1.37 1.30 1.23 1.10 1.00 0.97 0.96 0.95 1.01 1.24 1.23 1.31 1.31 1.39 1.47 1.50 1.49 1.47 1.66 1.54 1.54 1.56 1.61 1.74 1.70
0.22 0.21 0.22 0.22 0.26 0.30 0.32 0.37 0.45 0.46 0.53 0.58 0.63 0.73 0.89 1.01 1.17 1.33 1.31 1.28 1.26 1.15 1.03 1.01 1.00 1.02 1.13 1.20 1.25 1.29 1.35 1.41 1.40 1.34 1.21 1.23 1.41 1.31 1.31 1.32 1.42 1.64 1.68
0.26 0.25 0.23 0.22 0.24 0.29 0.35 0.38 0.42 0.45 0.48 0.52 0.53 0.59 0.69 0.83 1.01 1.15 1.18 1.19 1.20 1.15 1.08 1.02 0.99 1.01 1.09 1.23 1.42 1.32 1.23 1.20 1.19 1.17 1.21 1.15 1.14 1.13 1.07 1.13 1.28 1.38 1.54
0.25 0.23 0.23 0.24 0.26 0.29 0.33 0.39 0.45 0.46 0.47 0.48 0.52 0.54 0.57 0.61 0.71 0.82 0.94 1.03 1.04 1.02 1.01 1.01 0.99 1.01 1.03 1.03 1.16 1.23 1.16 1.08 1.04 1.01 0.96 0.97 0.98 0.99 0.97 0.98 1.02 1.11 1.39
0.30 0.28 0.27 0.28 0.28 0.30 0.31 0.37 0.41 0.45 0.48 0.50 0.55 0.58 0.61 0.63 0.65 0.67 0.73 0.83 0.85 0.93 1.00 0.99 0.99 0.98 0.96 0.99 1.14 1.16 1.12 1.15 1.17 1.19 1.08 1.03 0.97 0.96 0.96 0.96 1.03 1.17 1.33
0.31 0.32 0.33 0.34 0.33 0.34 0.35 0.37 0.38 0.42 0.45 0.47 0.48 0.49 0.53 0.60 0.62 0.64 0.68 0.77 0.80 0.87 0.87 0.88 0.88 0.81 0.87 0.98 0.99 1.00 1.04 1.11 1.25 1.30 1.21 1.23 1.18 1.14 1.11 1.07 1.06 1.10 1.19